"Pseudo-MPEC" for P10Rlyg

Created 2019 Sep 18 18:07:10 UT using Find_Orb

Click here for an explanation of pseudo-MPECs

 
 Astrometry: 
     P10Rlyg  C2012 10 17oiup-'$#/CJT4V,E6DbOxG_ed42HP$1ym-pU4t2wr]Q`m7_)5H2gF51
     P10Rlyg  C2012 10 17oL-4`?\7CG6kT,B[2?SIJmbRQf?J8L^yktjiA4PghrHT8U$HtXTtF51
     P10Rlyg  C2012 10 170Ua)%S/=RT7BC2#1bjy5lT'!2C#,W[22vokO$.(XAstrometryy$F51
     P10Rlyg  C2012 10 17V2'ANKAcqOjr;4uG6-\?Xqe.Osj-Mn=9P_g!redacted;ZQMcuE$F51
     P10Rlyg  C2012 10 24cu%y(bU!@@(U:r=AA4ZqsGL-RyJNyN7N.kVp1j'Rs6FE-gfB!7oHF51
     P10Rlyg  C2013 09 22dWU=']p0ND?htfXUr+EQS_=O`UDbsU=6]am)+eH`SvLeQDqQH*U?F51
     P10Rlyg  C2013 09 23YotWWm3O^J)Eq2*\5j51=:Kn0sRe9eZgBl5/AM3$L*7V@G/7=d.XF51
     P10Rlyg  C2013 09 235Vh/..shipZXYU+GZWQK4LQ5[hREQd5--x;i)C9ssa@-?KX-w/v3F51
     P10Rlyg  C2015 10 15R(2)mGjE`;EPxCiyj`\wYbV@_eLqE_8,klRQaQ[_tKVsg4$Qmfa4F51
     P10Rlyg  C2015 10 15%'*RxOkyAwD3OON[14U6D)Wx=[Od!7x')32$oTUmA+CpfT^uD\$!F51
     P10Rlyg  C2015 10 15Zu7c`8T8sru`i.8tclick,]%O-E]Et''S\;Ns%hf3[_,VOgZ8srqF51
     P10Rlyg  C2016 09 21%p_%k@,D#LP[onPVT`V)%tq_3D1^GkU`pF'VD^XJh9?_bI;0KiyKF51
     P10Rlyg  C2016 09 21(fo:Kp_WUL81JvDtd7n#yqp'CpJCAS/6GZ-,`afVLj,peJb3Na*lF51
     P10Rlyg  C2016 09 211f6'63HiB96Wv=]^NdNZZm*BX^1%ow;Q3(yWJlG'FDyd[7lEeLZ3F51
     P10Rlyg  C2016 09 21WV95:$ndUc;hereCkna!w-EvL'3rSE`@V=3E18:uG#jjo_jeFbakF51
     P10Rlyg  C2018 11 079gL`S3+mSa0g`BYq$bqMG;8!ab-9P3@6@Su4a6xNvtawlAU.8(/.F52
     P10Rlyg  C2018 11 07t0Itr0hHDb8ogRV#+^T%y+KA`33BBAREj%UX'St@rDa$ec9?ClJHF52
     P10Rlyg  C2018 11 073d\G,XBeAljQ%q*ykVCS5xrRk7u];xqYZr?lfornAW63GglsKl\iF52
     P10Rlyg  C2018 11 07qqAC#f4yJ)Qub1G'W;H5Q6\r(/DNNryQ9wT1-*;^Y#I+'A-MCRECF52
     P10Rlyg  C2018 11 12TDILCT@@/,p*GUc$Xiexplanationc_dqUknbktX4O8UylutUuLYF52
     P10Rlyg  C2018 11 12''B+9eoS*@bu4J@/(U8^Gm^9CXor^AR?NJonsHx91M(5n7#)JP:cF52
     P10Rlyg  C2018 11 12sr2F0-ROcTYt''LA8INn:FqwAM=^!iqGXS)BY7!.?(Z:AZ=I(1ISF52
     P10Rlyg  C2019 09 04.KN[B362^7fjI^$a_2ZBFt=[7fcH5=0:EE]X\ops53^KBy1.YSTSF51
     P10Rlyg  C2019 09 04p5D6SF%JV?o(^Kx1`1Oy7KxHY2Uhe%#doV0tgmPiJX'uV86BBiYmF51
     P10Rlyg  C2019 09 04g['Sjo?IL)r)mlcZ9m#cK*9\w)$?r7f9LGmpf?io7Lb]iwP]:b+-F51
     P10Rlyg ^C2019 09 08.47912600 09 06.074+20 13 22.61   ~98Fq 21.69GVNEOCP568
     P10Rlyg ^C2019 09 08.48007600 09 05.941+20 13 21.29   ~98Fq 21.76GVNEOCP568
     P10Rlyg ^C2019 09 08.48102700 09 05.805+20 13 19.96   ~98Fq 21.78GVNEOCP568
     P10Rlyg KC2019 09 18.37604 23 46 46.09 +16 04 14.0    ~9IAb 21.5 RoNEOCP291
     P10Rlyg KC2019 09 18.41727 23 46 40.58 +16 03 07.9    ~9IAb 21.0 RoNEOCP291

Station data:
(291) LPL/Spacewatch II  (N31.961669 W111.599905)  US/Arizona.  Observers J.
   V. Scotti, R. S. McMillan. 1.8-m f/2.7 reflector + CCD.
(568) Mauna Kea  (N19.826116 W155.472200)  US/Hawaii.
(F51) Pan-STARRS 1, Haleakala  (N20.707235 W156.255910)  US/Hawaii.
   Observers N. Primak, A. Schultz, S. Watters, J. Thiel, T. Goggia. Measurer
   PS1 Science Consortium. 1.8-m Ritchey-Chrétien + CCD.
(F52) Pan-STARRS 2, Haleakala  (N20.707384 W156.255910)  US/Hawaii. 1.8-m
   Ritchey-Chrétien + CCD.

Orbital elements:  P10Rlyg
   Perihelion 2019 Apr 17.330322 +/- 0.000454 TT =  7:55:39 (JD 2458590.830322)
Epoch 2019 Sep 18.0 TT = JDT 2458744.5   Earth MOID: 0.3698   Me: 0.0570
M 102.46688664 +/- 0.00030          (J2000 ecliptic)          AutoNEOCP
n   0.66679964 +/- 4.19e-8          Peri.    1.42101 +/- 0.00010
a   1.29759494 +/- 5.44e-8          Node   195.61252 +/- 0.000038
e   0.7240620 +/- 3.3e-7            Incl.   25.76212 +/- 0.000035
P   1.48/539.88d           H 20.1   G  0.15   U  1.9  
q 0.35805575 +/- 4.23e-7    Q 2.23713413 +/- 4.72e-7
From 30 observations 2012 Oct. 17-2019 Sept. 18; mean residual 0".18
Residuals in arcseconds: 
121017 F51  .05+  .03+    151015 F51  .06+  .04-    181112 F52  .32+  .25+    
121017 F51  .05-  .03+    160921 F51  .02-  .15-    181112 F52  .14-  .23-    
121017 F51  .25+  .02+    160921 F51  .29-  .25-    190904 F51  .08-  .04+    
121017 F51  .32-  .27-    160921 F51  .26+  .12-    190904 F51  .11-  .04-    
121024 F51  .02+  .10+    160921 F51  .40+  .34+    190904 F51  .26+  .03-    
130922 F51  .12-  .06-    181107 F52  .06-  .13+    190908 568  .05+  .06-    
130923 F51  .06-  .16-    181107 F52  .02-  .12+    190908 568  .06+  .06-    
130923 F51  .08+  .02-    181107 F52  .09+  .21+    190908 568  .02+  .06-    
151015 F51  .01+  .15+    181107 F52  .14-  .41-    190918 291  .35-  .24+    
151015 F51  .16-  .20-    181112 F52  .02+  .06-    190918 291  .04+  .39+    

Ephemerides (geocentric):
Date (UTC) HH   RA              Dec         delta   r     elong  mag " sig PA
---- -- -- --  -------------   -----------  ------ ------ -----  --- ---- ---
2019 09 18 18  23 45 57.282   +15 54 17.55  .95961 1.9408 162.2 22.1 .105  87
2019 09 18 19  23 45 51.828   +15 53 10.72  .95975 1.9410 162.2 22.1 .105  87
2019 09 18 20  23 45 46.377   +15 52 03.88  .95989 1.9412 162.3 22.1 .105  87
2019 09 18 21  23 45 40.929   +15 50 57.02  .96002 1.9415 162.3 22.1 .105  87
2019 09 18 22  23 45 35.483   +15 49 50.15  .96016 1.9417 162.3 22.1 .105  87
2019 09 18 23  23 45 30.039   +15 48 43.25  .96030 1.9419 162.4 22.1 .105  87
2019 09 19 00  23 45 24.598   +15 47 36.34  .96044 1.9421 162.4 22.1 .105  87
2019 09 19 01  23 45 19.159   +15 46 29.41  .96058 1.9424 162.5 22.1 .105  87
2019 09 19 02  23 45 13.723   +15 45 22.46  .96072 1.9426 162.5 22.1 .105  87
2019 09 19 03  23 45 08.290   +15 44 15.50  .96086 1.9428 162.5 22.1 .104  87
2019 09 19 04  23 45 02.859   +15 43 08.52  .96100 1.9430 162.6 22.1 .104  87
2019 09 19 05  23 44 57.430   +15 42 01.52  .96114 1.9432 162.6 22.1 .104  87
2019 09 19 06  23 44 52.004   +15 40 54.50  .96128 1.9435 162.6 22.1 .104  87
2019 09 19 07  23 44 46.581   +15 39 47.47  .96143 1.9437 162.7 22.1 .104  87
2019 09 19 08  23 44 41.160   +15 38 40.42  .96157 1.9439 162.7 22.1 .104  87
2019 09 19 09  23 44 35.741   +15 37 33.36  .96172 1.9441 162.7 22.1 .104  87
2019 09 19 10  23 44 30.326   +15 36 26.28  .96186 1.9443 162.8 22.1 .104  87
2019 09 19 11  23 44 24.913   +15 35 19.18  .96201 1.9446 162.8 22.1 .104  88
2019 09 19 12  23 44 19.502   +15 34 12.07  .96215 1.9448 162.8 22.1 .104  88
2019 09 19 13  23 44 14.094   +15 33 04.94  .96230 1.9450 162.9 22.1 .104  88
2019 09 19 14  23 44 08.689   +15 31 57.79  .96245 1.9452 162.9 22.1 .104  88
2019 09 19 15  23 44 03.286   +15 30 50.63  .96259 1.9454 162.9 22.1 .103  88
2019 09 19 16  23 43 57.886   +15 29 43.46  .96274 1.9457 163.0 22.1 .103  88
2019 09 19 17  23 43 52.489   +15 28 36.27  .96289 1.9459 163.0 22.1 .103  88
2019 09 19 18  23 43 47.094   +15 27 29.07  .96304 1.9461 163.0 22.1 .103  88
2019 09 19 19  23 43 41.702   +15 26 21.85  .96319 1.9463 163.1 22.1 .103  88
2019 09 19 20  23 43 36.313   +15 25 14.61  .96334 1.9465 163.1 22.1 .103  88
2019 09 19 21  23 43 30.927   +15 24 07.36  .96349 1.9468 163.1 22.1 .103  88
2019 09 19 22  23 43 25.543   +15 23 00.10  .96364 1.9470 163.2 22.1 .103  88
2019 09 19 23  23 43 20.162   +15 21 52.83  .96380 1.9472 163.2 22.1 .103  88
2019 09 20 00  23 43 14.783   +15 20 45.54  .96395 1.9474 163.2 22.1 .103  88
2019 09 20 01  23 43 09.408   +15 19 38.23  .96410 1.9476 163.3 22.1 .103  88
2019 09 20 02  23 43 04.035   +15 18 30.91  .96426 1.9479 163.3 22.1 .103  88
2019 09 20 03  23 42 58.665   +15 17 23.58  .96441 1.9481 163.3 22.1 .102  88
2019 09 20 04  23 42 53.297   +15 16 16.24  .96457 1.9483 163.4 22.1 .102  88
2019 09 20 05  23 42 47.933   +15 15 08.88  .96472 1.9485 163.4 22.1 .102  88
2019 09 20 06  23 42 42.571   +15 14 01.51  .96488 1.9487 163.4 22.1 .102  88
2019 09 20 07  23 42 37.212   +15 12 54.12  .96504 1.9490 163.4 22.1 .102  88
2019 09 20 08  23 42 31.856   +15 11 46.73  .96519 1.9492 163.5 22.1 .102  89
2019 09 20 09  23 42 26.503   +15 10 39.32  .96535 1.9494 163.5 22.1 .102  89
2019 09 20 10  23 42 21.152   +15 09 31.90  .96551 1.9496 163.5 22.1 .102  89
2019 09 20 11  23 42 15.805   +15 08 24.46  .96567 1.9498 163.6 22.1 .102  89
2019 09 20 12  23 42 10.460   +15 07 17.02  .96583 1.9500 163.6 22.1 .102  89
2019 09 20 13  23 42 05.118   +15 06 09.56  .96599 1.9503 163.6 22.1 .102  89
2019 09 20 14  23 41 59.779   +15 05 02.09  .96615 1.9505 163.6 22.1 .102  89
2019 09 20 15  23 41 54.443   +15 03 54.61  .96632 1.9507 163.7 22.1 .101  89
2019 09 20 16  23 41 49.110   +15 02 47.11  .96648 1.9509 163.7 22.1 .101  89
2019 09 20 17  23 41 43.780   +15 01 39.61  .96664 1.9511 163.7 22.1 .101  89